Resultats wild race 2018 results

WILD RACE 2018 ROSELEND BEAUFORT ALPINE LAKES TOUR

Results have been updated / Les résultats ont été mis à jour

BEAUFORT – FRENCH ALPS – AUGUST 6th, 2018

Yesterday on Lake Roselend, the very unique « WILD Race » was held for the 6th and maybe last time. Here are the Full WILD Race 2018 results with time, overall ranking, points earned for the final Alpine Lakes Tour 2018 ranking.

Hier a eu lieu sur le lac de Roselend la WILD Race, course organisée sur un lac normalement interdit à la navigation. Voici les résultats complets (scratch) de cette 6e et peut être dernière édition avec temps et classements par catégorie + points acquis pour le classement général de l’Alpine Lakes Tour 2018.

WILD RACE LONG DISTANCE

 

Long distance ranking / Classement longue distance (10 km)

BIBFirst namenameTimeJcategoryOverrankpts
120TEULADELudovic00:58:24Man composite 14′1195
121TEULADEJeremy00:58:27Man composite 14′2294
132AVRANCHESArthur00:58:44Man composite 14′3393
380COMAZZIolivier00:59:33Man composite 14′4492
80CRUZLeandro00:59:55Man composite 14′5591
34CRETTENANDNick01:00:08Man composite 14′6690
8GALIAYNicolas01:00:26Man composite 14′7789
237ANDRIEULouis01:00:54Man composite 14′8888
243DEBONOJulien01:02:20Man composite 14′9987
270BABILONMatthieu01:02:34Man composite 14′101086
187SCOVRONdidier01:02:51Man composite 14′111185
203RUFFIERbenoît01:02:52Man composite 14′121284
86CROSLoïc01:03:29Man composite 12’613183
62GUETGWolfgang01:04:17Man inflatable 14′14182
201LAGUIANAlexandre01:04:22Man composite 14′151381
197FIFILSTom01:04:27jMan composite 14′161480
196FORTINNicolas01:04:28Man composite 14′171579
297MARTIVincent01:04:35Man composite 14′181678
67GUERRE BERT.Pierre01:04:53Man composite 14′191777
294CURTITCyrille01:05:09Man composite 14′201876
225DAUTRUCHEMarie01:05:49Women 14′21175
93VIETPhilippe01:06:10Man composite 14′221974
272LELOUPphilippe01:06:31Man composite 14′232073
210GUILLERMINStéphane01:07:08Man composite 12’624272
246FOURCADEbenjamin01:07:18Man inflatable 12’625171
259MERCIERChristophe01:07:31Man composite 14′262170
274VALTERIONicolas01:07:50Man composite 14′272269
264HAUCHECORNEMicheline01:08:37Women 14′28268
123KOHNKevin01:08:43Man composite 12’629367
212LAUGERATJérémy01:08:49Man inflatable 12’630266
114ROPIOTphilippe01:09:06Man composite 14′312365
140BARRASCYRIL01:09:20Man inflatable 14′32264
260GOUTENDavid01:09:27Man composite 14′332463
232MARCONEmmanuelle01:09:40Women composite 12’634162
219PHILIPPYMike01:09:47Man composite 12’635461
303PRIOUZEAUBertrand01:09:50Man inflatable 12’636360
284FERRANDdavid01:09:54Man inflatable 14′37359
299DODYMorgane01:10:02Women 14′38358
262DUSSERREChristophe01:10:13Man composite 12’639557
117ROPIOTtitouan01:10:56jMan composite 14′402556
112HOTOGreg01:11:13Man composite 14′412655
202TACHERYvan01:11:19Man inflatable 12’642454
245GAMEsylvain01:11:24Man composite 12’643653
277POIRIERJean-Baptiste01:11:58Man composite 14′442752
271DUCHENEbarbara01:12:16Women 14′45451
9PANNETIERGeoffrey01:12:33Man composite 12’646750
236AUBINAlexandre01:13:32Man composite 12’647849
252FIEVETFrederic01:13:54Man inflatable 12’648548
137GAUTHEYSophie01:14:06Women 14′49547
235BOYERJérôme01:14:20Man inflatable 14′50446
115ROCHATIsabelle01:14:21Women composite 12’651245
59BILCOTVincent01:14:46Man composite 12’652944
283SOLLAUDmarie01:14:56Women inflatable 12’653143
221BERNOUDfabrice01:15:05Man inflatable 12’654642
231SAVINClément01:15:45Man inflatable 14′55541
228TOCQUEVILLEJulie01:16:04Women composite 12’656340
130NICOLASDAVID01:16:54Man inflatable 12’657739
278RAMIRESLudovic01:16:57Man inflatable 14′58638
57GUIROUARDFranck01:17:12Man inflatable 12’659837
275KHOROCHILOVANDREI01:17:51Man composite 12’6601036
224HEERMichel01:18:16Man inflatable 12’661935
292DELABIEdamien01:18:36Man inflatable 14′62734
280MISANDEAUlaurent01:18:48Man inflatable 12’6631033
192ANDRIOLAmandine01:19:10Women 14′64632
448VENTURAemmanuel01:19:15Man composite 14′652831
28MARIONOlivier01:19:46Man inflatable 12’6661130
226OBERLISYLVIANE01:20:01Women composite 12’667429
327CHOLLETMartine01:20:10Women composite 12’668528
143PERNEEANNE LAURE01:21:10Women inflatable 12’669227
291COULONRENAUD01:21:35Man inflatable 12’6701226
179MARTIGNONIVincent01:22:03Man composite 12’6711125
106HANTSONLuc01:22:30Man composite 12’6721224
83BONHOMMEManuelle01:22:39Women inflatable 12’673323
71ESNAOLAMarie01:22:45Women composite 12’674622
113PHILIPPYNaty01:23:06Women composite 12’675721
198FROSSARDHélène01:24:21Women inflatable 12’676420
263DERRIERLaëtitia01:24:37Women inflatable 12’677519
16VINZIOThierry01:25:18Man composite 14′782918
204CALLUBruno01:26:02Man composite 14′793017
95JALMAINSébastien01:26:25Man inflatable 12’6801316
183PORCHERnicolas01:26:42Man inflatable 12’6811415
185HOUHOUsamuel01:29:13Man composite 12’6821314
293REBISbruno01:30:54Man inflatable 12’6831513
127GEHINThomas01:34:11Man inflatable 14′84812
238ROUSSETMélanie01:40:28Women inflatable 12’685611
189LACAISSE T.Laetitia01:55:15Women composite 12’686810

WILD RACE SHORT & LONG DISTANCE

Short distance ranking / Classement courte distance

BIBFirst namenameTimeJcategoryoverrankALT pts
15CONUSMathieu00:36:40Man 14′1159
180BERGERThomas00:36:44Man composite 12’62158
287ANDREYNicolas00:39:28Man composite 12’63257
430LEMAIREvincent00:40:02Man inflatable 12’64156
261WARLUZELRemy00:42:02Man inflatable 12’65255
37DAS NEVESMiguel00:42:24Man 14′6254
138MOULUTXavier00:42:56Man 14′7353
216NOLYFlorian00:43:13Man inflatable 12’68352
215BRAIRE-MORISESTELLE00:43:16Women composite9151
13GENETsandrine00:43:48Women inflatable 12’610150
61THÉRAULAZMarie00:44:28Women inflatable 12’611249
296DINTENJocelyne00:44:39Women composite12248
298MULLERXavier00:45:26Man inflatable 12’613447
295FORNY PAN.Petra00:46:09Women composite14346
289LAVYNatasha00:46:26Women composite15445
244FOLLIOTSébastien00:46:40Man 14′16444
199PHILIPPYSofiane00:47:09jMan 14′17543
288PAILLETTEArnold00:47:26Man 14′18642
251PERILLATSéverine00:47:31Women composite19541
239BALINAlexis00:48:09Man inflatable 12’620540
217NOLYClement00:48:27Man inflatable 12’621639
190LALICHEBenjamin00:48:39Man inflatable 12’622738
139PICHOL THIE.Yannick00:48:44Man inflatable 12’623837
233PERREARDPhilippe00:48:50Man inflatable 12’624936
285LOPEZvincent00:49:01Man inflatable 12’6251035
186PELUDLionel00:49:13Man inflatable 12’6261134
213ARLAUDkewan00:49:44Man inflatable 12’6271233
188DOIXRaphael00:51:05Man inflatable 12’6281332
255DELGOVEAnne00:51:15Women composite29631
89ROZANDysaline00:51:32jWomen inflatable 12’630330
266BABILONHugo00:51:47jMan inflatable 12’6311429
290LAVYOlivier00:51:48Man composite 12’632328
194BATAILLEURJulie00:51:52Women inflatable 12’633427
92ALDINFlorence00:52:20Women composite34726
131ROLLIERJérémy00:54:04Man inflatable 12’6351525
258FOULIARDjeanne00:55:02Women inflatable 12’636524
230PERREARDBrigitte00:55:18Women composite37823
208SAULNIERMathias00:55:54Man inflatable 12’6381622
223VERDONJosselyn00:56:07Man inflatable 12’6391721
44POISSONNIERNicolas00:56:28Man inflatable 12’6401820
126WALLACECamilla00:56:35Women inflatable 12’641619
107BATUTArnaud00:56:45Man inflatable 12’6421918
43MONTANARICarole00:57:37Women inflatable 12’643717
145FRECHMarie-Adèle01:01:10Women inflatable 12’644816
125WALLACEMino01:01:33Man inflatable 12’6452015
56SOULIÉ BAUDOTThomas01:03:46jMan inflatable 12’6462114
49FINEFlorence01:05:11Women inflatable 12’647913
52BAUDOTStéphanie01:09:03Women inflatable 12’6481012
273VIVOStéphanie01:09:19Women inflatable 12’6491111
47MANGINchristelle01:10:18Women inflatable 12’6501210
125WALLACEMino01:13:15Man inflatable 12’651229
81DESSEMONTETArnaud01:13:15Man inflatable 12’652238
191DUSSEAUDelphine01:14:19Women inflatable 12’653137
146LAUNAYAdeline01:19:25Women inflatable 12’654146
213ARLAUDkewan01:23:06Man inflatable 12’655245

LONG & SHORT DISTANCE ROSELEND ALPINE LAKES TOUR

ALPINE LAKES TOUR SAVOIE LAC DE ROSELEND

BIBFirst namenameTimecategoryoverrankpts
121TEULADEJeremy00:23:00Man 14′1151
120TEULADELudovic00:23:06Man 14′2250
80CRUZLeandro00:23:35Man 14′3349
132AVRANCHESArthur00:24:00Man 14′4448
380COMAZZIolivier00:24:17Man 14′5547
8GALIAYNicolas00:24:29Man 14′6646
34CRETTENANDNick00:24:43Man 14′7745
243DEBONOJulien00:24:57Man 14′8844
62GUETGWolfgang00:24:01Man 14′9943
237ANDRIEULouis00:24:02Man 14′101042
196FORTINNicolas00:25:20Man 14′111141
270BABILONMatthieu00:25:33Man 14′121240
197FIFILSTom00:25:46Man 14′131339
203RUFFIERbenoît00:25:56Man 14′141438
294CURTITCyrille00:26:12Man 14′151537
297MARTIVincent00:26:16Man 14′161636
201LAGUIANAlexandre00:26:26Man 14′171735
187SCOVRONdidier00:26:27Man 14′181834
15CONUSMathieu00:26:28Man 14′191933
210GUILLERMINStéphane00:26:29Man composite 12’620132
212LAUGERATJérémy00:26:40Man inflatable 12’621131
180BERGERThomas00:26:55Man composite 12’622230
225DAUTRUCHEMarie00:26:59Women Scratch23129
262DUSSERREChristophe00:27:38Man composite 12’624328
93VIETPhilippe00:28:02Man 14′252027
232MARCONEmmanuelle00:28:10Women Scratch26226
271DUCHENEbarbara00:28:12Women Scratch27325
202TACHERYvan00:28:34Man inflatable 12’628224
430LEMAIREvincent00:29:07Man inflatable 12’629323
284FERRANDdavid00:29:29Man 14′302122
115ROCHATIsabelle00:29:45Women Scratch31421
245GAMEsylvain00:29:51Man composite 12’632420
236AUBINAlexandre00:30:20Man composite 12’633519
221BERNOUDfabrice00:30:46Man inflatable 12’634418
252FIEVETFrederic00:30:51Man inflatable 12’635517
13GENETsandrine00:31:52Women Scratch36516
192ANDRIOLAmandine00:32:08Women Scratch37615
283SOLLAUDmarie00:32:15Women Scratch38714
95JALMAINSébastien00:32:27Man inflatable 12’639613
292DELABIEdamien00:33:20Man 14′402212
183PORCHERnicolas00:33:34Man inflatable 12’641711
215BRAIRE-MORISEstelle00:34:08Women Scratch42810

TEULADE BROTHERS IN ACTIONMARIE DAUTRUCHE

Laisser un commentaire